Time,TemperatureF,DewpointF,PressureIn,WindDirection,WindDirectionDegrees,WindSpeedMPH,WindSpeedGustMPH,Humidity,HourlyPrecipIn,Conditions,Clouds,dailyrainin,SoftwareType,DateUTC
2013-09-03 00:00:00,53.7,49.0,29.92,East,85,6.0,6.0,84,0.00,,,0.00,Wunderground v.1.15,2013-09-03 06:00:00,
2013-09-03 00:09:00,53.4,49.0,29.92,ESE,120,4.0,5.0,85,0.00,,,0.00,Wunderground v.1.15,2013-09-03 06:09:00,
2013-09-03 00:19:00,53.3,48.6,29.93,East,93,6.0,6.0,84,0.00,,,0.00,Wunderground v.1.15,2013-09-03 06:19:00,
2013-09-03 00:24:00,53.2,48.5,29.93,East,82,5.0,6.0,84,0.00,,,0.00,Wunderground v.1.15,2013-09-03 06:24:00,
2013-09-03 00:34:00,53.1,48.4,29.93,ENE,78,6.0,7.0,84,0.00,,,0.00,Wunderground v.1.15,2013-09-03 06:34:00,
2013-09-03 00:39:00,53.0,48.3,29.93,ENE,77,6.0,6.0,84,0.00,,,0.00,Wunderground v.1.15,2013-09-03 06:39:00,
2013-09-03 00:44:00,52.8,48.1,29.93,ENE,75,5.0,11.0,84,0.00,,,0.00,Wunderground v.1.15,2013-09-03 06:44:00,
2013-09-03 00:54:00,52.5,47.8,29.94,ENE,63,6.0,6.0,84,0.00,,,0.00,Wunderground v.1.15,2013-09-03 06:54:00,
2013-09-03 00:59:00,52.3,47.9,29.94,East,82,5.0,5.0,85,0.00,,,0.00,Wunderground v.1.15,2013-09-03 06:59:00,
2013-09-03 01:09:00,52.2,47.8,29.94,East,87,6.0,6.0,85,0.00,,,0.00,Wunderground v.1.15,2013-09-03 07:09:00,
2013-09-03 01:14:00,52.1,47.7,29.94,ENE,76,6.0,6.0,85,0.00,,,0.00,Wunderground v.1.15,2013-09-03 07:14:00,
2013-09-03 01:19:00,51.9,47.5,29.94,ENE,61,4.0,5.0,85,0.00,,,0.00,Wunderground v.1.15,2013-09-03 07:19:00,
2013-09-03 01:24:00,51.7,47.3,29.94,East,80,5.0,6.0,85,0.00,,,0.00,Wunderground v.1.15,2013-09-03 07:24:00,
2013-09-03 01:29:00,51.5,47.1,29.94,ESE,111,6.0,6.0,85,0.00,,,0.00,Wunderground v.1.15,2013-09-03 07:29:00,
2013-09-03 01:39:00,50.9,46.9,29.94,ESE,102,5.0,5.0,86,0.00,,,0.00,Wunderground v.1.15,2013-09-03 07:39:00,
2013-09-03 01:44:00,50.5,46.8,29.94,East,83,4.0,5.0,87,0.00,,,0.00,Wunderground v.1.15,2013-09-03 07:44:00,
2013-09-03 01:49:00,50.4,46.7,29.94,East,81,4.0,4.0,87,0.00,,,0.00,Wunderground v.1.15,2013-09-03 07:49:00,
2013-09-03 01:54:00,50.2,46.5,29.94,ENE,78,4.0,4.0,87,0.00,,,0.00,Wunderground v.1.15,2013-09-03 07:54:00,
2013-09-03 02:00:00,50.1,46.7,29.94,ESE,108,5.0,5.0,88,0.00,,,0.00,Wunderground v.1.15,2013-09-03 08:00:00,
2013-09-03 02:09:00,49.9,46.5,29.94,East,92,5.0,7.0,88,0.00,,,0.00,Wunderground v.1.15,2013-09-03 08:09:00,
2013-09-03 02:19:00,49.8,46.4,29.94,ENE,63,6.0,6.0,88,0.00,,,0.00,Wunderground v.1.15,2013-09-03 08:19:00,
2013-09-03 02:24:00,49.6,46.2,29.94,East,92,5.0,6.0,88,0.00,,,0.00,Wunderground v.1.15,2013-09-03 08:24:00,
2013-09-03 02:29:00,49.6,46.2,29.95,ENE,73,5.0,5.0,88,0.00,,,0.00,Wunderground v.1.15,2013-09-03 08:29:00,
2013-09-03 02:39:00,49.4,46.0,29.94,ENE,76,4.0,4.0,88,0.00,,,0.00,Wunderground v.1.15,2013-09-03 08:39:00,
2013-09-03 02:49:00,49.2,45.8,29.95,East,79,5.0,5.0,88,0.00,,,0.00,Wunderground v.1.15,2013-09-03 08:49:00,
2013-09-03 02:54:00,49.1,45.7,29.95,ENE,58,5.0,5.0,88,0.00,,,0.00,Wunderground v.1.15,2013-09-03 08:54:00,
2013-09-03 03:00:00,49.1,45.7,29.94,East,101,5.0,7.0,88,0.00,,,0.00,Wunderground v.1.15,2013-09-03 09:00:00,
2013-09-03 03:09:00,49.0,45.6,29.94,East,82,5.0,5.0,88,0.00,,,0.00,Wunderground v.1.15,2013-09-03 09:09:00,
2013-09-03 03:14:00,48.9,45.5,29.94,East,93,5.0,5.0,88,0.00,,,0.00,Wunderground v.1.15,2013-09-03 09:14:00,
2013-09-03 03:24:00,48.8,45.7,29.94,ENE,62,5.0,5.0,89,0.00,,,0.01,Wunderground v.1.15,2013-09-03 09:24:00,
2013-09-03 03:29:00,48.8,45.7,29.95,East,87,5.0,5.0,89,0.00,,,0.01,Wunderground v.1.15,2013-09-03 09:29:00,
2013-09-03 03:39:00,48.8,45.7,29.95,East,98,5.0,6.0,89,0.00,,,0.01,Wunderground v.1.15,2013-09-03 09:39:00,
2013-09-03 03:44:00,48.6,45.5,29.95,East,96,5.0,6.0,89,0.00,,,0.01,Wunderground v.1.15,2013-09-03 09:44:00,
2013-09-03 03:49:00,48.5,45.4,29.95,East,81,5.0,6.0,89,0.00,,,0.01,Wunderground v.1.15,2013-09-03 09:49:00,
2013-09-03 03:54:00,48.5,45.4,29.95,East,94,4.0,6.0,89,0.00,,,0.01,Wunderground v.1.15,2013-09-03 09:54:00,
2013-09-03 04:00:00,48.3,45.2,29.95,East,99,4.0,4.0,89,0.00,,,0.01,Wunderground v.1.15,2013-09-03 10:00:00,
2013-09-03 04:09:00,48.1,45.0,29.95,East,90,3.0,3.0,89,0.00,,,0.01,Wunderground v.1.15,2013-09-03 10:09:00,
2013-09-03 04:14:00,48.0,44.9,29.95,ESE,118,4.0,5.0,89,0.00,,,0.01,Wunderground v.1.15,2013-09-03 10:14:00,
2013-09-03 04:19:00,47.9,44.8,29.95,East,92,4.0,4.0,89,0.00,,,0.01,Wunderground v.1.15,2013-09-03 10:19:00,
2013-09-03 04:24:00,47.7,44.6,29.95,East,92,4.0,4.0,89,0.00,,,0.01,Wunderground v.1.15,2013-09-03 10:24:00,
2013-09-03 04:34:00,47.4,44.6,29.95,East,91,4.0,4.0,90,0.00,,,0.01,Wunderground v.1.15,2013-09-03 10:34:00,
2013-09-03 04:44:00,47.4,44.6,29.95,East,80,5.0,8.0,90,0.00,,,0.01,Wunderground v.1.15,2013-09-03 10:44:00,
2013-09-03 04:49:00,47.3,44.5,29.95,ENE,78,6.0,6.0,90,0.00,,,0.01,Wunderground v.1.15,2013-09-03 10:49:00,
2013-09-03 04:54:00,47.2,44.4,29.96,East,80,5.0,6.0,90,0.00,,,0.01,Wunderground v.1.15,2013-09-03 10:54:00,
2013-09-03 05:00:00,47.2,44.4,29.95,ESE,102,5.0,5.0,90,0.00,,,0.01,Wunderground v.1.15,2013-09-03 11:00:00,
2013-09-03 05:09:00,47.2,44.4,29.96,NE,55,5.0,7.0,90,0.00,,,0.01,Wunderground v.1.15,2013-09-03 11:09:00,
2013-09-03 05:14:00,47.2,44.4,29.96,ESE,114,5.0,7.0,90,0.00,,,0.01,Wunderground v.1.15,2013-09-03 11:14:00,
2013-09-03 05:19:00,47.2,44.4,29.96,East,79,5.0,6.0,90,0.00,,,0.01,Wunderground v.1.15,2013-09-03 11:19:00,
2013-09-03 05:29:00,47.2,44.4,29.95,East,89,5.0,5.0,90,0.00,,,0.01,Wunderground v.1.15,2013-09-03 11:29:00,
2013-09-03 05:34:00,47.2,44.4,29.95,East,94,4.0,5.0,90,0.00,,,0.01,Wunderground v.1.15,2013-09-03 11:34:00,
2013-09-03 05:39:00,47.2,44.4,29.96,East,100,4.0,4.0,90,0.00,,,0.01,Wunderground v.1.15,2013-09-03 11:39:00,
2013-09-03 05:49:00,47.2,44.4,29.96,ESE,102,5.0,5.0,90,0.00,,,0.01,Wunderground v.1.15,2013-09-03 11:49:00,
2013-09-03 05:59:00,46.9,44.1,29.96,East,80,2.0,3.0,90,0.00,,,0.01,Wunderground v.1.15,2013-09-03 11:59:00,
2013-09-03 06:09:00,47.0,44.5,29.96,ESE,122,4.0,5.0,91,0.00,,,0.01,Wunderground v.1.15,2013-09-03 12:09:00,
2013-09-03 06:14:00,47.0,44.2,29.97,East,88,4.0,5.0,90,0.00,,,0.01,Wunderground v.1.15,2013-09-03 12:14:00,
2013-09-03 06:24:00,46.7,43.9,29.97,East,90,2.0,7.0,90,0.00,,,0.01,Wunderground v.1.15,2013-09-03 12:24:00,
2013-09-03 06:29:00,46.5,44.0,29.97,ENE,58,1.0,1.0,91,0.00,,,0.01,Wunderground v.1.15,2013-09-03 12:29:00,
2013-09-03 06:39:00,46.4,43.9,29.97,ESE,110,1.0,3.0,91,0.00,,,0.01,Wunderground v.1.15,2013-09-03 12:39:00,
2013-09-03 06:44:00,46.2,43.7,29.97,East,92,1.0,3.0,91,0.00,,,0.01,Wunderground v.1.15,2013-09-03 12:44:00,
2013-09-03 06:49:00,46.0,43.5,29.97,ESE,122,1.0,1.0,91,0.00,,,0.01,Wunderground v.1.15,2013-09-03 12:49:00,
2013-09-03 06:54:00,45.8,43.3,29.97,SSE,155,0.0,1.0,91,0.00,,,0.01,Wunderground v.1.15,2013-09-03 12:54:00,
2013-09-03 07:00:00,45.9,43.7,29.98,ESE,116,1.0,1.0,92,0.00,,,0.01,Wunderground v.1.15,2013-09-03 13:00:00,
2013-09-03 07:09:00,45.8,43.6,29.98,ESE,116,0.0,0.0,92,0.00,,,0.01,Wunderground v.1.15,2013-09-03 13:09:00,
2013-09-03 07:19:00,45.8,43.6,29.98,SSE,153,0.0,0.0,92,0.00,,,0.01,Wunderground v.1.15,2013-09-03 13:19:00,
2013-09-03 07:24:00,45.7,43.5,29.98,SW,225,0.0,1.0,92,0.00,,,0.01,Wunderground v.1.15,2013-09-03 13:24:00,
2013-09-03 07:29:00,45.6,43.4,29.98,SW,225,0.0,0.0,92,0.00,,,0.01,Wunderground v.1.15,2013-09-03 13:29:00,
2013-09-03 07:34:00,45.6,43.4,29.98,SW,225,0.0,0.0,92,0.00,,,0.01,Wunderground v.1.15,2013-09-03 13:34:00,
2013-09-03 07:39:00,45.6,43.4,29.98,SW,225,0.0,0.0,92,0.00,,,0.01,Wunderground v.1.15,2013-09-03 13:39:00,
2013-09-03 07:44:00,45.6,43.4,29.98,SW,225,0.0,0.0,92,0.00,,,0.01,Wunderground v.1.15,2013-09-03 13:44:00,
2013-09-03 07:49:00,45.7,43.5,29.98,SW,225,0.0,0.0,92,0.00,,,0.01,Wunderground v.1.15,2013-09-03 13:49:00,
2013-09-03 08:00:00,46.1,44.2,29.98,SW,225,0.0,0.0,93,0.00,,,0.01,Wunderground v.1.15,2013-09-03 14:00:00,
2013-09-03 08:09:00,46.5,44.6,29.99,SW,225,0.0,0.0,93,0.00,,,0.01,Wunderground v.1.15,2013-09-03 14:09:00,
2013-09-03 08:14:00,46.8,44.9,29.99,SW,225,0.0,0.0,93,0.00,,,0.01,Wunderground v.1.15,2013-09-03 14:14:00,
2013-09-03 08:19:00,47.1,45.2,29.99,SW,225,0.0,0.0,93,0.00,,,0.01,Wunderground v.1.15,2013-09-03 14:19:00,
2013-09-03 08:24:00,47.5,45.6,29.98,SW,225,0.0,0.0,93,0.00,,,0.01,Wunderground v.1.15,2013-09-03 14:24:00,
2013-09-03 08:29:00,48.1,46.2,29.98,SW,225,0.0,1.0,93,0.00,,,0.01,Wunderground v.1.15,2013-09-03 14:29:00,
2013-09-03 08:39:00,49.5,47.6,29.98,SW,225,0.0,0.0,93,0.00,,,0.01,Wunderground v.1.15,2013-09-03 14:39:00,
2013-09-03 08:44:00,50.5,48.8,29.98,SW,225,0.0,0.0,94,0.00,,,0.01,Wunderground v.1.15,2013-09-03 14:44:00,
2013-09-03 08:49:00,51.6,49.9,29.98,SW,225,0.0,0.0,94,0.00,,,0.01,Wunderground v.1.15,2013-09-03 14:49:00,
2013-09-03 08:54:00,52.8,50.5,29.97,SW,225,0.0,0.0,92,0.00,,,0.01,Wunderground v.1.15,2013-09-03 14:54:00,
2013-09-03 09:00:00,54.1,51.5,29.97,SW,225,0.0,0.0,91,0.00,,,0.01,Wunderground v.1.15,2013-09-03 15:00:00,
2013-09-03 09:09:00,56.1,52.9,29.97,SW,225,0.0,0.0,89,0.00,,,0.01,Wunderground v.1.15,2013-09-03 15:09:00,
2013-09-03 09:14:00,57.0,53.2,29.97,SW,225,0.0,0.0,87,0.00,,,0.01,Wunderground v.1.15,2013-09-03 15:14:00,
2013-09-03 09:19:00,57.8,53.3,29.97,SW,225,0.0,0.0,85,0.00,,,0.01,Wunderground v.1.15,2013-09-03 15:19:00,
2013-09-03 09:24:00,59.4,54.2,29.97,SW,225,0.0,0.0,83,0.00,,,0.01,Wunderground v.1.15,2013-09-03 15:24:00,
2013-09-03 09:29:00,60.5,54.0,29.97,SW,225,0.0,0.0,79,0.00,,,0.01,Wunderground v.1.15,2013-09-03 15:29:00,
2013-09-03 09:39:00,64.4,54.0,29.97,NNW,338,1.0,1.0,69,0.00,,,0.01,Wunderground v.1.15,2013-09-03 15:39:00,
2013-09-03 09:44:00,65.3,54.1,29.96,NNW,333,2.0,3.0,67,0.00,,,0.01,Wunderground v.1.15,2013-09-03 15:44:00,
2013-09-03 09:49:00,65.8,53.7,29.96,North,355,2.0,3.0,65,0.00,,,0.01,Wunderground v.1.15,2013-09-03 15:49:00,
2013-09-03 09:54:00,67.0,53.5,29.96,NNW,333,2.0,3.0,62,0.00,,,0.01,Wunderground v.1.15,2013-09-03 15:54:00,
2013-09-03 10:00:00,67.3,53.4,29.96,NNW,342,2.0,3.0,61,0.00,,,0.01,Wunderground v.1.15,2013-09-03 16:00:00,
2013-09-03 10:09:00,68.3,51.5,29.96,NNW,336,3.0,4.0,55,0.00,,,0.01,Wunderground v.1.15,2013-09-03 16:09:00,
2013-09-03 10:14:00,68.5,51.7,29.96,NNW,344,2.0,4.0,55,0.00,,,0.01,Wunderground v.1.15,2013-09-03 16:14:00,
2013-09-03 10:19:00,68.6,52.8,29.96,NNW,334,2.0,2.0,57,0.00,,,0.01,Wunderground v.1.15,2013-09-03 16:19:00,
2013-09-03 10:24:00,68.8,51.5,29.96,NNW,336,2.0,4.0,54,0.00,,,0.01,Wunderground v.1.15,2013-09-03 16:24:00,
2013-09-03 10:34:00,69.4,52.5,29.96,WNW,294,3.0,4.0,55,0.00,,,0.01,Wunderground v.1.15,2013-09-03 16:34:00,
2013-09-03 10:39:00,69.5,51.6,29.96,NNW,328,3.0,3.0,53,0.00,,,0.01,Wunderground v.1.15,2013-09-03 16:39:00,
2013-09-03 10:44:00,69.7,51.3,29.95,North,355,3.0,6.0,52,0.00,,,0.01,Wunderground v.1.15,2013-09-03 16:44:00,
2013-09-03 10:49:00,70.2,52.3,29.95,NNW,346,2.0,5.0,53,0.00,,,0.01,Wunderground v.1.15,2013-09-03 16:49:00,
2013-09-03 10:54:00,70.4,51.9,29.95,NW,321,3.0,5.0,52,0.00,,,0.01,Wunderground v.1.15,2013-09-03 16:54:00,
2013-09-03 10:59:00,70.3,51.3,29.95,NW,322,3.0,3.0,51,0.00,,,0.01,Wunderground v.1.15,2013-09-03 16:59:00,
2013-09-03 11:09:00,70.9,52.4,29.95,WNW,286,3.0,3.0,52,0.00,,,0.01,Wunderground v.1.15,2013-09-03 17:09:00,
2013-09-03 11:19:00,71.5,51.3,29.96,NW,315,3.0,3.0,49,0.00,,,0.01,Wunderground v.1.15,2013-09-03 17:19:00,
2013-09-03 11:24:00,71.5,51.3,29.95,WNW,298,3.0,3.0,49,0.00,,,0.01,Wunderground v.1.15,2013-09-03 17:24:00,
2013-09-03 11:29:00,71.5,50.8,29.95,NNW,335,3.0,3.0,48,0.00,,,0.01,Wunderground v.1.15,2013-09-03 17:29:00,
2013-09-03 11:39:00,72.3,52.1,29.95,NNW,331,3.0,3.0,49,0.00,,,0.01,Wunderground v.1.15,2013-09-03 17:39:00,
2013-09-03 11:44:00,72.8,52.5,29.95,NNW,347,3.0,3.0,49,0.00,,,0.01,Wunderground v.1.15,2013-09-03 17:44:00,
2013-09-03 11:54:00,73.2,51.8,29.94,NW,307,2.0,3.0,47,0.00,,,0.01,Wunderground v.1.15,2013-09-03 17:54:00,
2013-09-03 12:00:00,73.3,51.3,29.94,NNW,338,2.0,6.0,46,0.00,,,0.01,Wunderground v.1.15,2013-09-03 18:00:00,
2013-09-03 12:09:00,73.0,51.6,29.94,WNW,299,4.0,4.0,47,0.00,,,0.01,Wunderground v.1.15,2013-09-03 18:09:00,
2013-09-03 12:14:00,73.3,52.4,29.94,NNW,332,3.0,4.0,48,0.00,,,0.01,Wunderground v.1.15,2013-09-03 18:14:00,
2013-09-03 12:24:00,74.4,52.9,29.93,WSW,246,3.0,3.0,47,0.00,,,0.01,Wunderground v.1.15,2013-09-03 18:24:00,
2013-09-03 12:34:00,74.8,51.4,29.92,NNW,329,3.0,3.0,44,0.00,,,0.01,Wunderground v.1.15,2013-09-03 18:34:00,
2013-09-03 12:39:00,74.1,52.0,29.91,NW,323,4.0,4.0,46,0.00,,,0.01,Wunderground v.1.15,2013-09-03 18:39:00,